Regional Weather Roundup
Issued by NWS Northern Indiana

Home | Current Version | Previous Version | Text Only | Print | Product List | Glossary Off
Versions: 1 2 3 4 5 6 7 8 9 10 11 12 13 14 15 16 17 18 19 20 21 22 23 24 25 26 27 28 29 30 31 32 33 34 35 36 37 38 39 40 41 42 43 44 45 46 47 48 49 50

000
ASUS43 KIWX 012200
RWRIWX

KIWX WEATHER ROUNDUP
NATIONAL WEATHER SERVICE NORTHERN INDIANA
600 PM EDT SAT AUG 01 2015

NOTE: "FAIR" INDICATES FEW OR NO CLOUDS BELOW 12,000 FEET WITH NO
SIGNIFICANT WEATHER AND/OR OBSTRUCTIONS TO VISIBILITY.

* THESE STATIONS ARE NOT UNDER NWS QUALITY CONTROL. THEY ALSO MAY NOT
  REPORT WEATHER SUCH AS PRECIPITATION OR FOG.

INZ001>027-012300-
NORTHERN INDIANA

CITY           SKY/WX    TMP DP  RH WIND       PRES   REMARKS
GARY*          PTSUNNY   86  57  37 W16G26    29.92F
KNOX*          PTSUNNY   82  55  39 W12       29.93S
SOUTH BEND     MOSUNNY   84  56  38 VRB3      29.94F
ELKHART*       MOSUNNY   82  50  32 NW6       29.94F
GOSHEN         MOSUNNY   81  56  42 NW6       29.94F
MONTICELLO*    MOSUNNY   83  61  46 SW10      29.95F
WARSAW*        SUNNY     81  52  36 W3        29.95S
ANGOLA*        PTSUNNY   81  55  41 NW7       29.95S
FORT WAYNE     PTSUNNY   80  53  39 W12       29.96S

$$
INZ028>050-012300-
CENTRAL INDIANA

CITY           SKY/WX    TMP DP  RH WIND       PRES   REMARKS
LAFAYETTE      MOSUNNY   81  60  48 W6        29.97S
KOKOMO*        PTSUNNY   82  55  39 W9        29.97S
MUNCIE*        MOSUNNY   79  56  45 W9        29.98S
INDIANAPOLIS   PTSUNNY   82  54  37 W9        29.98S

$$
MIZ043>046-050>051-056>058-064>065-071>073-077>080-012300-
SOUTHWEST LOWER MICHIGAN

CITY           SKY/WX    TMP DP  RH WIND       PRES   REMARKS
BATTLE CREEK   MOSUNNY   81  52  36 W14       29.93F
BENTON HARBOR  MOSUNNY   82  54  37 W6        29.92F
COLDWATER*     MOSUNNY   77  50  38 W9        29.93F
HILLSDALE*     MOSUNNY   80  52  36 W10G20    29.93F
HOLLAND        SUNNY     80  53  39 W9        29.92F
GRAND RAPIDS   MOSUNNY   81  48  31 NW16      29.91S
KALAMAZOO      MOSUNNY   80  55  42 W8        29.93S
STURGIS*       PTSUNNY   75  55  50 W5        29.94S
THREE RIVERS*  PTSUNNY   78  53  41 W5        29.94S

$$
OHZ001>008-015>018-024>025-012300-
NORTHWEST OHIO

CITY           SKY/WX    TMP DP  RH WIND       PRES   REMARKS
DEFIANCE       MOSUNNY   83  51  33 W8G18     29.93S
FINDLAY        MOSUNNY   84  51  31 W13       29.92S
TOLEDO EXPRESS SUNNY     82  53  36 W14       29.90F
TOLEDO METCALF MOSUNNY   83  50  31 W15       29.90F
LIMA           MOSUNNY   80  54  40 NW10G16   29.95S

$$
AND FOR LAKE MICHIGAN COASTAL AND OPEN LAKE BUOY OBSERVATIONS

STATION/POSITION TEMP    WIND        PRES    VSBY  WAVE
                 AIR SEA DIR/SP/G                  HT/PER
                 (F)     (DEG/KT/KT) (MB)    (MI)  (FT/S)
CALUMET HARBOR    85     230/  7/ 13   N/A
MICHIGAN CITY     78      10/  3/  3   N/A
BURNS HARBOR      80     340/  2/  3 1013.5F
SAINT JOSEPH      86     230/  2/  2 1014.9F
4 MI NW BRIDGMAN  76 75  190/  2/  4   N/A           2/ 4
MICHIGAN CITY     79 76  110/  2/  4   N/A           1/ 4

$$
&&


USA.gov is the U.S. government's official web portal to all federal, state and local government web resources and services.